Terminal Aerodrome Forecast
Issued by NWS Sioux Falls, SD

Home | Current Version | Previous Version | Text Only | Print | Product List | Glossary On
Versions: 1 2 3 4 5 6 7 8 9 10 11 12 13 14
000
FTUS43 KFSD 202320
TAFFSD
TAF
KFSD 202320Z 2100/2124 03005KT P6SM BKN110
     FM210900 02011KT P6SM OVC070=

USA.gov is the U.S. government's official web portal to all federal, state and local government web resources and services.